Wetbulb
44.58 44.53 44.99 45.46 46.83 47.68 47.93 48.66 49.20 49.60 51.62 54.00 56.22 57.56 58.51 59.59 61.15 61.66 61.61 61.78 61.46 62.87 63.22 63.54 63.30 63.06 62.89 62.68 63.00 62.51 61.43 60.62 57.09 47.75 49.34 48.07 46.91 45.36 44.54 44.65 45.28 42.22 43.63
45.05 45.44 45.29 45.62 46.37 46.30 47.17 48.13 49.15 49.25 50.76 53.01 55.73 57.95 58.47 59.30 59.90 60.30 61.10 61.65 59.34 57.43 56.89 56.31 55.08 54.25 51.03 50.92 52.97 49.71 53.39 51.73 50.15 45.26 45.73 44.31 43.39 43.85 43.03 43.08 44.03 45.42 47.17
45.01 44.87 44.53 45.13 44.93 45.18 46.50 47.77 48.87 49.49 50.57 53.51 57.46 57.10 57.72 59.53 60.42 58.31 56.89 53.98 52.38 51.87 51.64 51.27 49.18 48.80 47.39 47.92 48.22 47.95 47.39 47.36 46.65 43.78 40.09 41.75 41.92 42.27 42.11 41.49 40.78 40.59 45.86
44.62 44.21 44.07 43.77 44.83 45.50 46.53 47.72 48.88 49.84 50.27 52.88 56.07 56.73 58.78 58.31 55.63 54.49 51.68 49.67 49.09 48.87 48.92 48.70 48.14 47.27 46.78 47.07 47.14 46.91 46.24 44.26 43.02 41.31 40.09 39.75 40.69 40.38 39.78 38.94 38.70 38.64 38.44
43.64 43.90 43.90 44.38 45.24 46.45 47.22 48.40 49.19 49.66 51.05 54.13 55.85 55.25 56.29 55.43 54.67 50.94 49.83 48.71 48.73 48.67 48.70 48.86 48.75 49.33 49.53 48.35 46.64 45.59 45.23 44.16 43.06 40.65 38.35 38.55 38.39 37.91 37.03 36.69 36.32 35.18 37.27
44.40 44.24 44.65 44.87 45.63 46.65 47.42 47.98 48.17 49.05 49.49 51.89 53.76 55.07 52.02 51.74 48.60 49.92 50.07 48.89 47.95 46.83 46.15 46.87 47.71 49.05 48.98 48.84 48.29 47.75 45.77 41.77 38.85 38.20 38.05 37.76 35.89 36.28 35.98 35.73 35.44 34.92 33.50
43.77 43.98 44.15 45.49 45.27 47.00 46.32 46.54 47.67 47.32 49.03 53.85 52.00 49.76 48.20 48.62 46.96 47.50 48.49 47.32 46.02 45.66 45.45 45.16 45.07 45.48 45.16 45.51 47.23 46.06 45.03 43.53 42.35 39.30 37.32 36.33 35.74 36.25 36.23 35.17 34.23 34.08 34.22
42.71 43.46 45.10 46.14 45.28 45.50 45.12 44.77 46.29 48.74 51.83 49.82 48.84 47.86 47.23 46.81 45.57 45.45 45.62 45.03 44.72 44.94 44.66 43.71 42.45 42.39 42.46 42.13 42.01 40.97 40.47 39.88 39.40 40.11 38.79 37.17 37.64 36.90 36.75 36.29 35.69 35.21 34.84
42.69 43.85 43.87 43.97 43.03 43.98 43.92 44.65 47.86 49.92 48.51 46.83 46.78 46.00 45.80 46.36 45.00 43.52 44.42 43.99 43.34 42.75 42.31 41.97 41.53 40.90 41.33 40.80 39.64 38.61 38.38 39.15 43.75 43.34 41.86 40.67 39.35 40.17 40.21 37.04 35.07 33.61 32.42
40.89 41.54 43.02 44.48 44.83 44.24 46.04 47.77 48.75 47.19 45.51 45.06 44.38 45.64 46.00 44.38 44.16 42.85 43.47 42.80 41.60 41.22 41.29 41.47 43.03 40.69 40.05 39.69 37.98 37.15 35.70 35.15 37.16 37.15 36.82 37.99 40.35 41.85 42.56 37.42 34.86 33.28 31.56
41.91 42.62 42.00 43.61 44.07 46.00 46.89 48.50 46.07 43.89 43.10 42.93 43.26 43.89 43.59 42.94 42.95 42.80 43.10 42.59 41.26 40.70 42.16 41.83 41.58 40.51 39.28 38.54 39.12 38.12 37.27 37.71 37.56 36.56 38.63 39.05 39.32 38.74 38.11 38.05 36.96 35.22 32.52
40.93 40.72 41.96 43.26 44.77 46.29 47.81 45.91 43.28 42.05 41.13 40.62 40.08 39.96 41.16 41.64 42.52 41.70 40.99 41.38 42.85 41.23 40.54 40.22 39.33 38.81 38.64 38.76 38.61 38.05 38.22 38.00 37.07 37.11 37.22 36.07 36.86 36.83 37.85 37.36 37.37 37.30 38.80
40.70 40.62 41.96 43.69 45.35 47.70 45.24 42.61 41.38 41.46 41.00 39.77 39.37 38.80 39.52 40.82 40.46 40.76 40.15 40.53 41.11 39.72 39.99 39.94 39.23 38.82 38.80 39.06 38.90 38.39 37.71 35.36 35.32 34.85 34.31 34.62 35.07 36.29 37.41 37.92 39.18 41.13 41.84
40.47 41.50 42.89 45.51 44.97 45.12 44.13 42.85 41.27 40.31 39.95 39.54 38.81 38.82 39.02 39.30 39.40 40.15 40.09 40.57 41.32 41.01 40.91 40.06 40.05 39.57 39.34 39.16 38.60 38.01 37.63 35.39 34.15 33.23 33.57 34.26 35.19 35.58 35.42 35.52 39.85 40.55 40.75
41.65 42.41 40.95 40.34 39.44 38.26 38.83 40.85 40.29 40.23 40.83 39.59 39.60 39.11 37.58 36.69 37.62 38.81 39.21 39.67 39.78 39.27 39.25 38.46 37.63 37.14 36.46 36.50 36.57 36.55 36.62 36.07 34.56 33.07 33.36 33.61 34.54 34.65 34.78 35.39 39.14 39.86 38.69
39.63 39.68 39.78 39.39 38.93 38.49 37.65 36.54 37.58 37.56 37.57 37.54 38.14 38.05 37.42 37.76 38.15 38.07 37.77 37.62 37.38 37.88 37.57 35.97 35.21 35.30 34.90 34.80 34.43 34.39 34.19 34.84 33.50 33.61 32.26 32.32 31.86 32.73 33.18 34.32 38.58 39.13 38.36
38.57 38.67 38.96 38.55 37.93 37.18 36.60 35.76 34.36 36.56 37.75 37.26 36.99 37.30 37.37 37.15 37.35 37.22 36.60 36.13 36.56 37.03 35.33 34.92 34.27 34.33 33.99 33.73 33.21 32.64 31.71 31.87 32.72 32.89 31.77 30.90 31.71 31.83 31.73 31.99 34.42 39.01 39.00
38.51 38.87 38.02 38.07 37.61 37.19 36.99 36.59 36.19 35.37 34.79 36.00 37.61 37.70 36.91 36.52 36.34 36.47 36.56 37.37 35.67 35.66 35.00 33.79 33.61 33.88 33.62 32.69 31.91 30.61 30.58 31.49 31.07 30.94 30.94 30.51 30.25 30.50 30.74 30.42 33.83 38.02 37.90
38.54 38.49 38.80 38.45 38.27 37.43 36.74 36.60 36.57 36.86 36.92 37.14 37.58 37.72 37.31 36.31 36.12 36.18 36.52 35.44 33.79 33.06 32.86 32.13 32.62 31.98 31.61 31.10 30.89 30.91 30.42 30.09 29.35 29.75 29.03 29.16 28.84 28.90 29.10 30.31 33.18 35.47 36.84
38.19 38.19 37.88 37.42 37.32 37.33 38.20 38.20 38.18 38.09 37.58 37.83 37.22 36.09 36.75 36.30 33.91 33.61 33.61 32.90 31.88 31.37 31.88 31.56 31.63 31.45 30.57 29.75 29.23 29.03 29.10 28.53 28.13 27.33 27.32 27.83 28.40 28.87 28.40 29.27 31.47 34.99 37.32
38.29 38.34 37.30 38.27 38.53 39.59 39.43 38.55 38.40 37.74 37.76 35.85 34.43 33.78 32.07 33.27 31.68 31.29 31.21 31.05 30.19 29.97 29.90 29.34 28.32 28.15 27.93 28.05 27.56 27.05 26.89 26.62 26.56 27.01 27.52 27.42 27.98 28.23 28.57 29.24 30.51 32.57 36.55
38.97 38.81 39.03 38.83 39.20 38.84 39.12 39.33 38.25 37.40 35.62 34.42 33.71 33.17 32.09 32.55 31.54 30.42 29.23 28.76 28.20 27.88 28.26 28.01 26.44 25.71 25.45 25.68 25.94 25.90 26.33 26.54 26.58 26.62 26.79 27.27 27.78 28.28 28.81 29.31 29.78 30.69 32.99
39.19 38.95 38.82 38.69 38.50 37.67 38.43 37.35 35.72 34.61 34.65 34.19 33.50 32.39 31.48 29.94 29.35 28.45 28.25 27.49 27.44 27.18 26.73 27.30 25.87 24.87 24.99 25.57 25.75 25.76 25.89 25.37 25.40 26.21 26.90 27.43 27.81 27.90 28.12 28.50 29.60 29.47 29.79
39.19 39.00 38.38 37.60 36.92 35.84 34.70 33.96 33.99 33.33 33.54 32.72 32.04 31.33 30.39 29.71 28.59 27.63 26.67 26.99 27.18 26.69 26.09 25.69 25.64 25.44 25.42 25.84 26.31 26.48 26.93 26.79 27.15 27.04 28.01 27.87 27.69 28.16 28.49 28.60 28.56 29.48 29.82
38.14 37.16 36.13 34.83 34.63 34.46 34.30 34.06 33.86 33.86 33.53 32.85 31.95 31.22 30.13 29.21 28.18 28.15 27.40 27.20 26.70 26.06 26.10 25.74 25.52 26.52 26.92 26.94 27.21 27.96 28.94 29.83 28.52 28.32 27.93 28.47 28.40 28.52 28.25 28.14 28.46 28.63 30.12
36.55 36.38 35.91 35.72 35.16 34.71 34.23 33.96 33.66 33.51 33.04 32.74 31.62 30.80 29.96 29.07 28.68 28.18 27.23 27.13 26.30 26.01 25.82 25.79 26.59 26.84 26.76 26.68 27.54 28.42 28.72 28.84 28.33 28.71 27.98 28.62 28.50 28.02 27.71 28.02 28.60 28.48 29.04
MSLP
1011.41 1011.38 1011.26 1010.97 1010.65 1010.23 1009.74 1009.09 1008.58 1007.86 1007.18 1006.51 1005.79 1005.25 1004.72 1004.08 1003.73 1003.69 1003.46 1003.22 1003.48 1003.28 1002.92 1003.06 1002.85 1002.93 1003.26 1003.62 1004.07 1004.37 1004.94 1005.78 1006.95 1008.92 1009.48 1011.04 1011.92 1012.20 1012.53 1012.88 1013.74 1013.10 1012.44
1011.07 1010.95 1010.81 1010.54 1010.23 1009.94 1009.34 1008.68 1008.07 1007.39 1006.68 1006.09 1005.36 1004.70 1004.17 1003.68 1003.32 1003.19 1003.00 1003.07 1003.40 1003.76 1003.67 1003.78 1004.10 1004.40 1004.35 1004.62 1004.55 1004.39 1004.95 1006.26 1007.03 1008.24 1009.80 1011.32 1012.54 1012.86 1012.82 1013.35 1013.93 1012.85 1012.58
1010.56 1010.54 1010.40 1010.16 1009.83 1009.36 1008.79 1008.08 1007.50 1006.93 1006.29 1005.55 1004.79 1004.43 1003.80 1003.54 1003.35 1003.58 1003.67 1004.00 1004.35 1004.69 1004.64 1004.91 1005.18 1005.17 1005.62 1005.55 1005.64 1005.71 1005.59 1006.42 1007.22 1008.64 1010.54 1011.62 1012.84 1013.29 1014.04 1013.31 1013.47 1013.14 1012.90
1010.02 1009.98 1009.84 1009.60 1009.29 1008.72 1008.17 1007.54 1007.07 1006.62 1005.97 1005.14 1004.30 1004.06 1003.63 1003.77 1003.93 1004.16 1004.41 1004.64 1005.07 1005.57 1005.74 1005.67 1005.93 1006.15 1006.36 1006.45 1006.63 1006.82 1006.86 1007.03 1007.70 1009.22 1010.76 1012.25 1012.54 1013.55 1013.40 1012.63 1013.25 1013.63 1013.54
1009.63 1009.44 1009.16 1008.98 1008.66 1008.03 1007.53 1007.07 1006.71 1006.20 1005.47 1004.64 1004.05 1004.10 1003.95 1004.06 1004.36 1004.76 1005.00 1005.14 1005.62 1006.12 1006.36 1006.57 1006.56 1006.80 1006.92 1007.18 1007.21 1007.72 1007.84 1008.05 1008.63 1009.68 1010.56 1012.60 1012.68 1012.95 1013.27 1013.09 1013.34 1013.71 1013.59
1008.96 1008.68 1008.50 1008.37 1008.02 1007.51 1007.15 1006.86 1006.38 1005.82 1005.04 1004.26 1004.28 1004.18 1004.39 1004.59 1005.00 1005.26 1005.44 1005.66 1006.34 1006.62 1007.25 1007.58 1007.54 1007.67 1007.75 1008.07 1008.33 1008.69 1008.75 1009.35 1010.23 1010.78 1011.08 1012.16 1012.84 1012.50 1013.50 1013.31 1013.53 1014.06 1014.63
1008.13 1007.85 1007.82 1007.67 1007.40 1007.14 1006.83 1006.54 1006.12 1005.56 1004.99 1004.61 1004.66 1004.70 1004.97 1005.50 1005.63 1005.82 1006.13 1006.68 1007.18 1007.67 1008.03 1008.38 1008.58 1008.91 1009.01 1009.27 1009.60 1010.21 1010.37 1010.58 1010.92 1011.12 1011.35 1012.17 1011.92 1013.13 1013.59 1013.56 1014.11 1014.47 1014.93
1007.14 1007.04 1006.94 1006.95 1006.90 1006.81 1006.59 1006.27 1005.86 1005.35 1005.06 1005.25 1005.24 1005.53 1005.46 1006.25 1006.28 1006.36 1006.78 1007.39 1008.06 1008.61 1008.94 1009.39 1009.73 1009.93 1010.05 1010.46 1010.81 1011.35 1011.36 1011.34 1011.38 1011.77 1011.79 1012.37 1012.79 1013.02 1013.39 1013.58 1014.26 1014.47 1014.71
1006.35 1006.33 1006.52 1006.56 1006.44 1006.33 1006.09 1005.97 1005.63 1005.38 1005.53 1005.75 1005.98 1006.24 1006.25 1006.90 1007.17 1006.91 1007.07 1007.85 1008.85 1009.43 1009.92 1010.22 1010.34 1010.79 1011.13 1011.48 1011.77 1012.03 1012.03 1012.53 1012.43 1012.12 1012.53 1013.12 1013.05 1013.17 1013.29 1013.70 1014.50 1014.78 1014.99
1006.21 1006.07 1005.98 1005.89 1005.79 1005.76 1005.78 1005.84 1005.60 1005.83 1006.20 1006.41 1006.70 1007.03 1007.27 1007.59 1008.08 1007.88 1007.72 1008.15 1009.19 1009.96 1010.45 1010.95 1011.16 1011.42 1011.39 1012.00 1012.36 1012.54 1013.01 1013.49 1013.18 1012.74 1013.02 1013.44 1013.58 1013.67 1014.15 1014.24 1014.84 1014.95 1015.18
1005.56 1005.43 1005.51 1005.54 1005.41 1005.49 1005.64 1005.69 1005.94 1006.41 1006.93 1007.06 1007.25 1007.81 1008.18 1008.62 1008.87 1008.88 1008.73 1008.75 1009.37 1010.22 1011.00 1011.63 1012.04 1011.96 1011.63 1012.51 1013.01 1013.23 1013.67 1013.58 1013.69 1014.13 1014.25 1014.19 1014.23 1014.51 1014.95 1014.89 1015.14 1015.29 1015.51
1005.15 1005.15 1005.14 1005.12 1005.18 1005.28 1005.47 1005.83 1006.34 1006.87 1007.32 1007.65 1007.92 1008.45 1009.35 1009.80 1009.97 1009.98 1009.85 1010.13 1010.59 1010.65 1011.67 1012.22 1012.54 1012.46 1012.67 1013.09 1013.65 1013.73 1013.94 1014.14 1014.19 1014.59 1014.87 1014.86 1014.60 1015.03 1015.27 1015.87 1015.85 1015.19 1014.94
1004.72 1004.85 1004.80 1004.74 1004.68 1004.97 1005.38 1006.21 1006.88 1007.36 1007.74 1008.20 1008.33 1009.16 1010.10 1010.70 1011.02 1011.06 1011.35 1011.70 1011.84 1012.11 1012.57 1013.07 1013.18 1013.29 1013.68 1014.20 1014.24 1014.41 1014.61 1014.74 1014.78 1015.16 1015.40 1015.32 1015.49 1015.55 1015.78 1015.98 1015.44 1015.06 1014.56
1004.48 1004.45 1004.37 1004.19 1004.53 1005.36 1006.14 1006.94 1007.38 1007.96 1008.36 1008.46 1008.85 1010.02 1010.62 1011.28 1011.82 1012.31 1012.58 1012.64 1012.67 1013.06 1013.47 1013.84 1014.07 1014.34 1014.77 1015.10 1015.19 1015.33 1015.37 1015.50 1015.70 1016.04 1015.95 1015.91 1016.22 1016.35 1016.16 1015.90 1015.34 1014.83 1014.88
1004.34 1004.39 1004.72 1005.14 1005.76 1006.61 1007.39 1007.98 1008.34 1008.95 1009.12 1008.98 1009.87 1010.54 1011.03 1012.25 1013.16 1013.42 1013.48 1013.63 1013.83 1014.09 1014.29 1014.80 1015.14 1015.72 1016.20 1016.32 1016.33 1016.34 1016.36 1016.48 1016.56 1016.78 1016.66 1016.78 1016.91 1016.94 1016.55 1015.97 1015.64 1015.69 1015.83
1004.70 1005.30 1005.63 1006.12 1006.88 1007.44 1008.11 1009.16 1009.92 1010.07 1010.17 1010.21 1010.57 1011.13 1012.68 1013.26 1013.94 1014.25 1014.29 1014.27 1014.47 1014.69 1015.05 1015.80 1016.52 1016.96 1017.19 1017.34 1017.41 1017.52 1017.42 1017.36 1017.51 1017.63 1017.52 1017.50 1017.40 1017.24 1017.17 1016.84 1016.37 1016.30 1016.11
1005.71 1006.43 1006.87 1007.28 1007.98 1008.45 1009.22 1009.89 1010.55 1011.91 1011.73 1012.05 1012.44 1013.07 1013.93 1014.52 1014.88 1015.11 1015.09 1015.43 1015.73 1015.88 1016.29 1016.96 1017.63 1018.03 1018.32 1018.32 1018.41 1018.48 1018.61 1018.48 1018.50 1018.35 1018.06 1018.03 1017.83 1017.97 1017.94 1017.68 1017.05 1016.96 1016.91
1007.16 1007.56 1007.87 1008.51 1008.96 1009.53 1010.11 1010.77 1011.39 1011.94 1012.94 1014.02 1014.50 1014.83 1015.24 1015.52 1015.70 1015.88 1016.17 1016.28 1016.83 1017.34 1017.77 1018.39 1018.83 1019.08 1019.21 1019.31 1019.27 1019.43 1019.59 1019.38 1019.21 1019.04 1018.76 1018.76 1018.90 1018.93 1018.65 1018.43 1017.92 1017.63 1017.51
1008.16 1008.57 1009.03 1009.59 1010.22 1010.58 1011.01 1011.57 1012.07 1012.96 1014.00 1014.96 1015.68 1015.95 1016.17 1016.42 1016.56 1016.86 1017.17 1017.77 1018.35 1018.80 1019.25 1019.59 1019.93 1020.08 1020.10 1020.20 1020.43 1020.45 1020.56 1020.54 1020.24 1019.95 1019.93 1019.78 1019.59 1019.19 1019.09 1018.78 1018.69 1018.54 1018.45
1009.66 1009.96 1010.22 1010.76 1011.27 1011.66 1012.15 1012.59 1013.41 1014.29 1015.03 1015.79 1016.54 1017.14 1017.11 1017.23 1017.98 1018.50 1018.88 1019.20 1019.64 1020.19 1020.45 1020.68 1020.97 1021.02 1021.19 1021.29 1021.24 1021.25 1021.14 1021.02 1020.92 1020.78 1020.53 1020.17 1019.86 1019.82 1019.96 1019.73 1019.57 1019.35 1019.13
1010.69 1011.25 1011.54 1011.88 1012.45 1012.90 1013.34 1013.92 1014.63 1015.44 1016.33 1017.24 1017.63 1017.90 1018.00 1018.63 1019.34 1019.86 1020.25 1020.63 1020.98 1021.33 1021.65 1021.91 1022.13 1022.17 1022.07 1021.95 1021.96 1022.02 1022.07 1021.91 1021.44 1021.13 1021.05 1021.10 1020.77 1020.72 1020.59 1020.46 1020.26 1019.94 1019.50
1011.78 1012.13 1012.59 1013.01 1013.68 1014.03 1014.52 1015.17 1015.82 1016.79 1017.47 1017.95 1018.56 1019.01 1019.17 1019.76 1020.49 1021.13 1021.57 1021.94 1022.29 1022.50 1022.64 1022.73 1022.98 1023.00 1022.94 1022.94 1022.87 1022.63 1022.36 1022.26 1022.17 1022.07 1021.86 1021.63 1021.47 1021.38 1021.20 1021.08 1020.97 1020.43 1019.74
1012.89 1013.14 1013.57 1014.14 1014.73 1015.25 1015.90 1016.80 1017.44 1017.87 1018.41 1019.03 1019.51 1020.08 1020.64 1021.36 1021.88 1022.37 1022.81 1023.18 1023.35 1023.45 1023.53 1023.41 1023.55 1023.71 1023.63 1023.45 1023.19 1022.94 1022.92 1023.11 1023.09 1022.74 1022.45 1022.34 1022.22 1022.18 1021.94 1021.78 1021.57 1021.11 1020.53
1013.89 1014.28 1014.82 1015.36 1015.97 1016.64 1017.39 1018.03 1018.55 1019.01 1019.51 1020.07 1020.70 1021.40 1021.98 1022.55 1023.05 1023.51 1023.87 1024.11 1024.12 1024.28 1024.34 1024.30 1024.30 1024.27 1024.07 1023.84 1023.65 1023.59 1023.56 1023.41 1023.11 1022.98 1022.86 1022.97 1023.00 1022.78 1022.54 1022.40 1022.19 1021.78 1021.45
1015.24 1015.85 1016.39 1016.91 1017.48 1018.05 1018.55 1019.12 1019.65 1020.18 1020.71 1021.31 1021.96 1022.43 1022.94 1023.40 1023.92 1024.37 1024.65 1024.79 1024.97 1025.13 1025.26 1025.23 1024.96 1024.66 1024.51 1024.44 1024.33 1024.14 1023.83 1023.57 1023.56 1023.59 1023.54 1023.45 1023.55 1023.32 1023.15 1023.02 1022.85 1022.55 1022.17
1016.44 1016.97 1017.49 1017.98 1018.55 1019.05 1019.55 1020.10 1020.70 1021.22 1021.79 1022.30 1022.83 1023.36 1023.84 1024.29 1024.67 1024.96 1025.24 1025.50 1025.85 1025.98 1025.89 1025.76 1025.61 1025.51 1025.35 1025.20 1025.02 1024.69 1024.45 1024.35 1024.26 1024.14 1024.05 1024.01 1024.06 1024.04 1023.92 1023.78 1023.57 1023.33 1023.09
Wind_Speed
5 5 6 6 7 7 7 10 9 8 9 10 10 7 8 7 6 6 7 6 6 6 8 9 9 6 7 7 8 9 9 8 9 2 3 5 4 6 6 4 5 3 3
6 6 6 6 7 7 8 10 11 10 9 9 10 7 7 7 6 7 7 5 3 3 3 6 6 5 7 6 3 6 5 4 3 7 10 5 5 5 6 3 3 3 5
5 6 7 9 7 8 9 10 11 12 10 10 7 7 6 6 3 4 2 6 7 7 6 7 7 8 7 5 6 6 8 8 10 9 7 3 4 4 3 3 3 4 4
6 6 9 7 8 9 8 10 11 11 10 11 7 6 4 3 4 3 5 9 9 8 8 9 8 8 7 7 7 7 9 12 14 13 9 5 4 3 3 3 4 3 3
7 10 11 7 8 10 8 9 11 11 10 10 6 3 5 4 2 7 8 10 10 10 10 9 8 12 15 11 7 8 9 10 9 9 8 3 3 3 1 1 2 1 3
10 14 11 10 9 7 7 8 10 10 11 7 2 6 7 6 13 14 12 11 11 12 12 12 12 17 19 20 19 17 12 10 9 7 5 5 3 4 0 2 2 4 3
13 15 11 12 7 10 5 7 10 9 7 4 6 9 10 9 16 18 18 11 11 11 11 10 10 9 14 11 16 17 15 13 6 4 9 4 7 2 2 2 3 2 1
13 14 10 9 7 9 6 8 7 5 3 5 7 9 12 9 20 22 21 14 12 12 12 10 10 12 14 12 9 8 6 5 6 6 9 6 6 5 3 2 3 3 1
13 7 6 9 11 11 5 6 7 3 6 7 7 9 13 10 15 20 18 14 14 13 10 10 11 11 11 5 7 8 7 6 10 15 14 10 9 9 6 3 3 3 0
9 9 8 6 7 5 5 7 4 6 8 8 11 10 14 11 9 12 15 13 14 10 11 9 11 11 14 11 7 6 7 3 3 6 5 7 8 9 10 6 1 3 0
7 7 7 8 7 4 4 5 9 9 10 11 13 11 11 10 9 10 12 12 12 11 9 7 4 7 14 12 7 5 4 4 7 6 6 6 6 6 4 5 5 2 1
7 7 8 6 4 4 5 9 11 11 11 11 13 11 9 10 13 15 16 14 13 12 9 5 5 15 14 14 7 9 10 5 5 5 5 3 5 4 3 2 3 4 2
6 7 6 7 7 6 12 11 9 9 9 9 11 10 9 9 11 20 19 18 17 11 9 12 16 17 16 14 14 11 9 4 5 6 3 3 2 2 2 3 3 1 4
5 5 6 5 12 11 8 7 8 7 7 9 12 10 10 10 9 9 9 10 17 12 13 13 16 16 14 9 10 9 7 5 4 3 3 3 2 2 3 2 3 4 4
3 7 10 11 14 14 12 8 7 6 5 8 10 10 12 10 7 9 8 8 7 8 10 9 8 7 6 7 7 8 6 6 7 4 4 4 4 3 4 4 3 3 5
12 9 9 10 10 11 12 14 25 21 20 20 19 16 10 15 15 14 13 15 16 13 9 8 7 6 7 6 6 6 7 9 5 4 4 3 4 5 4 4 3 3 6
12 10 10 11 10 11 11 12 15 18 28 26 24 22 19 15 15 13 13 13 14 11 9 8 7 6 6 6 6 6 5 5 3 5 5 4 4 5 5 4 4 4 5
14 19 11 10 10 10 10 11 11 13 14 13 17 14 15 13 10 11 11 10 9 9 8 7 6 6 6 6 7 5 4 5 5 5 6 5 5 4 4 4 4 6 6
11 10 11 11 10 13 12 13 14 15 13 11 8 9 10 13 18 19 16 8 8 8 7 7 6 6 6 6 5 5 5 4 4 6 5 5 4 4 5 6 4 5 5
13 20 16 12 12 12 12 14 14 12 12 11 9 4 6 11 9 9 8 8 8 7 6 7 6 6 5 4 4 4 6 6 5 5 4 4 5 5 5 5 5 3 4
11 12 19 14 12 11 12 12 12 13 13 7 7 8 11 10 9 8 8 7 7 7 6 6 5 4 4 5 5 5 5 4 4 5 6 5 5 5 4 4 4 4 5
11 12 12 13 12 11 13 12 13 12 9 10 10 10 13 9 9 8 8 7 6 6 4 6 5 4 4 4 3 4 5 6 6 5 5 5 5 5 4 4 4 5 6
13 14 13 12 12 14 13 10 9 9 10 9 9 9 9 8 8 8 8 6 6 6 4 5 5 5 4 4 4 4 6 5 3 3 5 5 5 5 4 5 5 5 5
12 13 13 12 11 11 10 10 10 11 10 10 10 9 8 8 8 8 6 5 7 6 6 5 5 5 4 5 5 5 4 4 4 5 6 6 5 5 5 5 5 6 5
11 11 11 10 10 10 10 10 9 10 10 9 9 9 8 8 8 7 6 6 6 6 6 4 4 7 9 9 8 8 7 9 8 5 5 6 7 8 6 5 5 4 7
10 11 10 9 9 9 9 9 9 9 9 8 8 7 7 8 7 7 6 6 5 5 5 5 7 9 9 8 8 10 10 9 8 7 5 5 6 6 5 6 9 5 6
Wind_Direction
283 266 276 283 285 286 294 296 289 284 289 287 282 284 286 285 276 255 240 240 236 233 240 239 231 214 194 199 210 212 211 206 206 145 101 95 81 83 59 31 356 12 360
270 286 284 276 272 277 284 288 294 287 286 282 274 263 278 287 288 256 246 242 225 246 52 64 66 54 47 29 37 95 73 43 131 121 123 80 84 69 64 95 306 37 65
262 262 270 276 272 270 277 289 294 292 288 292 272 269 298 293 297 336 13 66 55 40 54 71 85 89 82 90 106 87 95 93 85 102 101 90 88 72 200 119 48 13 43
277 272 277 266 274 276 274 286 292 291 287 284 267 284 5 22 76 78 79 81 77 65 61 67 74 86 95 87 77 88 110 111 113 114 106 93 96 210 234 123 96 40 46
264 283 283 268 272 279 275 284 293 292 290 274 267 40 75 74 92 95 95 89 88 84 73 76 85 97 94 92 95 91 95 102 108 110 101 127 169 118 64 56 102 294 19
272 286 291 287 282 289 271 282 294 295 296 296 52 82 73 79 95 102 103 93 83 82 81 74 73 80 86 83 81 78 80 93 90 86 111 122 159 83 40 73 75 42 10
278 284 277 273 280 294 280 299 296 294 304 61 80 87 94 99 99 99 96 91 90 87 85 80 74 64 60 61 62 66 69 82 88 144 121 159 82 114 109 66 76 104 123
270 270 262 266 273 295 286 297 292 295 45 83 88 98 100 108 110 106 100 95 92 89 84 81 86 80 74 64 68 83 67 56 66 81 76 76 95 111 105 109 133 143 15
267 253 270 273 279 273 276 287 285 84 81 84 88 104 107 109 114 113 111 106 98 91 83 81 80 81 85 65 98 101 72 52 65 81 81 86 100 84 71 74 58 99 300
266 266 257 268 267 268 283 301 83 96 94 96 89 87 98 97 94 111 117 116 106 103 91 89 80 93 92 86 83 86 95 30 58 56 54 56 70 61 48 54 66 101 173
264 247 266 266 242 253 280 143 111 102 103 96 93 89 86 88 88 90 104 111 116 112 98 91 88 98 98 78 78 86 78 113 79 78 93 86 80 73 39 37 38 104 110
246 252 254 246 249 246 179 118 115 115 111 103 96 88 76 75 74 70 73 82 100 104 100 89 64 72 70 79 75 81 86 87 89 91 83 67 67 57 31 13 22 49 98
230 242 252 255 246 204 130 121 118 119 118 116 104 97 100 93 82 76 76 79 77 79 85 97 89 83 74 65 67 65 65 60 73 82 89 56 45 5 308 315 318 50 66
218 227 238 172 97 96 98 108 113 113 123 128 111 117 106 96 95 93 82 79 75 75 70 78 80 76 72 64 59 48 50 42 66 80 65 39 354 21 28 322 43 24 41
182 103 91 87 89 84 70 73 80 53 85 112 111 109 110 94 78 78 82 79 85 85 88 69 67 65 64 60 56 49 48 51 58 30 61 58 38 20 10 358 38 32 52
100 96 98 96 94 93 93 80 57 67 71 76 85 98 81 90 96 92 76 75 73 70 73 76 65 61 62 60 58 58 48 54 33 36 51 58 50 34 16 0 20 53 41
91 91 87 90 95 98 96 100 98 70 71 74 79 80 86 88 70 61 54 69 76 70 76 71 71 68 62 57 59 57 45 18 19 48 51 46 48 31 23 10 8 43 36
85 85 89 91 93 94 97 100 102 98 97 87 68 86 80 78 68 67 81 83 66 56 69 75 72 72 67 59 47 41 29 30 36 34 39 37 40 44 33 7 22 37 23
90 91 90 90 92 100 103 103 100 99 99 97 92 65 53 75 66 60 62 74 82 74 68 63 60 61 61 55 41 42 43 41 38 46 30 38 26 46 27 30 21 28 19
82 91 94 95 96 97 100 101 101 99 96 93 84 68 90 72 71 67 63 71 72 70 69 69 59 58 54 56 55 49 47 36 33 36 33 34 29 42 36 28 17 4 13
93 93 101 96 94 93 96 96 95 97 98 92 79 79 80 86 79 73 72 63 70 70 71 69 55 52 46 50 49 52 54 42 35 36 34 23 23 33 21 29 21 9 13
95 100 98 100 106 101 98 94 91 96 91 90 85 74 76 77 76 74 71 66 61 62 60 81 70 57 46 49 46 66 54 46 34 26 31 35 33 28 24 27 13 14 21
99 106 103 97 97 98 97 88 86 91 88 86 87 83 77 77 77 75 73 65 69 66 51 65 65 55 38 42 34 50 61 43 14 21 46 44 33 28 27 32 18 17 15
101 102 97 92 87 89 89 87 87 83 89 83 82 82 83 81 80 75 73 72 73 63 52 50 46 54 52 44 41 41 46 41 41 43 55 58 39 23 30 31 18 16 11
90 90 92 89 90 92 91 87 88 90 90 92 93 91 92 91 89 85 79 73 66 60 48 38 36 45 49 50 48 42 33 42 47 38 48 55 49 36 26 24 14 7 18
85 86 89 91 92 94 96 96 92 91 94 95 94 91 96 96 92 91 82 75 70 65 58 40 45 49 46 37 36 39 36 35 38 40 53 53 47 32 27 24 25 22 12